This is the latest recevied weather packets stored in our database for station/object KF0EZB. If no packets are shown the sender has not sent any weather packets the latest 10 day(s).
| Time | Temp. | Humidity | Pressure | Rain* | Wind** | Luminosity | Snow |
|---|---|---|---|---|---|---|---|
| 1777575032 | 13.33° C | 79% | 1019.6 hPa | 0 mm | - | 316 W/m² | - |
| 1777574728 | 13.33° C | 79% | 1019.4 hPa | 0 mm | - | 262 W/m² | - |
| 1777574426 | 13.33° C | 78% | 1019.6 hPa | 0 mm | - | 304 W/m² | - |
| 1777574121 | 13.33° C | 78% | 1019.7 hPa | 0 mm | - | 258 W/m² | - |
| 1777573817 | 13.33° C | 77% | 1019.7 hPa | 0 mm | - | 246 W/m² | - |
| 1777573512 | 13.33° C | 78% | 1019.6 hPa | 0 mm | - | 245 W/m² | - |
| 1777573209 | 13.89° C | 78% | 1019.7 hPa | 0 mm | - | 339 W/m² | - |
| 1777572905 | 13.33° C | 80% | 1019.6 hPa | 0 mm | - | 364 W/m² | - |
| 1777572601 | 13.33° C | 81% | 1020 hPa | 0 mm | - | 388 W/m² | - |
| 1777572301 | 12.78° C | 82% | 1019.8 hPa | 0 mm | - | 377 W/m² | - |
| 1777571997 | 12.22° C | 87% | 1019.8 hPa | 0 mm | - | 374 W/m² | - |
| 1777571691 | 12.22° C | 89% | 1019.7 hPa | 0 mm | - | 393 W/m² | - |
| 1777571390 | 12.22° C | 92% | 1019.8 hPa | 0 mm | - | 418 W/m² | - |
| 1777571085 | 11.67° C | 93% | 1019.9 hPa | 0 mm | - | 426 W/m² | - |
| 1777570781 | 11.67° C | 95% | 1020 hPa | 0 mm | - | 424 W/m² | - |
| 1777570478 | 11.11° C | 95% | 1020.1 hPa | 0 mm | - | 438 W/m² | - |
| 1777570173 | 11.11° C | 96% | 1019.9 hPa | 1.78 mm | - | 409 W/m² | - |
| 1777569870 | 10.56° C | 96% | 1020.2 hPa | 1.78 mm | - | 334 W/m² | - |
| 1777569566 | 10.56° C | 96% | 1020.1 hPa | 0 mm | - | 305 W/m² | - |
| 1777569263 | 10.56° C | 96% | 1020.1 hPa | 0 mm | - | 304 W/m² | - |
| 1777568959 | 10° C | 97% | 1020.3 hPa | 0 mm | - | 300 W/m² | - |
| 1777568655 | 10.56° C | 97% | 1020.4 hPa | 0 mm | - | 298 W/m² | - |
| 1777568353 | 10° C | 97% | 1020.3 hPa | 0 mm | - | 296 W/m² | - |
| 1777568050 | 10° C | 97% | 1020.3 hPa | 0 mm | - | 243 W/m² | - |
| 1777567746 | 10° C | 97% | 1020.6 hPa | 0 mm | - | 198 W/m² | - |
* Rain latest hour (hover to see other rain measurements)
** Current wind speed in m/s (hover to see current wind gust speed)